When you browse on this site, cookies collect data to enhance your experience and personalize the content and advertising you see.
Visit our Privacy Policy to learn more. By continuing to use the site, you agree to this use of cookies and data.
  • In Czech Republic
  • List of Countries
  • For 7 days
  • Water Temperature
  • Satellite Maps
  • Weather Map
  • Weather Widgets
  • user-avatar
    Login

    Hourly Weather Watertown

    Today, 19 April, Friday

    Time Temperature Precipitation Wind Pressure Humidity
    00:00 +4°C° 0 mm 4 mps 734 mmHg 89%
    01:00 +3°C° 0 mm 4 mps 734 mmHg 88%
    02:00 +2°C° 0 mm 5 mps 734 mmHg 87%
    03:00 +2°C° 0 mm 6 mps 734 mmHg 86%
    04:00 +2°C° 0 mm 6 mps 734 mmHg 86%
    05:00 +1°C° 0 mm 6 mps 735 mmHg 86%
    06:00 +1°C° 0 mm 6 mps 735 mmHg 85%
    07:00 +2°C° 0 mm 7 mps 736 mmHg 77%
    08:00 +4°C° 0 mm 7 mps 736 mmHg 69%
    09:00 +5°C° 0 mm 8 mps 736 mmHg 61%
    10:00 +6°C° 0 mm 8 mps 736 mmHg 56%
    11:00 +9°C° 0 mm 8 mps 736 mmHg 50%
    12:00 +10°C° 0 mm 8 mps 736 mmHg 45%
    13:00 +11°C° 0 mm 8 mps 736 mmHg 44%
    14:00 +11°C° 0 mm 7 mps 736 mmHg 43%
    15:00 +11°C° 0 mm 7 mps 735 mmHg 42%
    16:00 +10°C° 0 mm 6 mps 735 mmHg 47%
    17:00 +9°C° 0 mm 5 mps 735 mmHg 51%
    18:00 +8°C° 0 mm 4 mps 735 mmHg 56%
    19:00 +7°C° 0 mm 4 mps 735 mmHg 57%
    20:00 +5°C° 0 mm 4 mps 736 mmHg 58%
    21:00 +4°C° 0 mm 4 mps 736 mmHg 59%
    22:00 +3°C° 0 mm 4 mps 736 mmHg 59%
    23:00 +2°C° 0 mm 3 mps 736 mmHg 59%

    Tomorrow, 20 April, Saturday

    Time Temperature Precipitation Wind Pressure Humidity
    00:00 +2°C° 0 mm 3 mps 736 mmHg 60%
    01:00 +1°C° 0 mm 3 mps 735 mmHg 61%
    02:00 +1°C° 0 mm 3 mps 735 mmHg 62%
    03:00 +1°C° 0 mm 3 mps 735 mmHg 63%
    04:00 0°C° 0 mm 4 mps 735 mmHg 65%
    05:00 0°C° 0 mm 4 mps 735 mmHg 66%
    06:00 0°C° 0 mm 4 mps 735 mmHg 67%
    07:00 +4°C° 0 mm 4 mps 735 mmHg 62%
    08:00 +6°C° 0 mm 5 mps 735 mmHg 56%
    09:00 +9°C° 0 mm 5 mps 735 mmHg 50%
    10:00 +10°C° 0 mm 5 mps 734 mmHg 46%
    11:00 +13°C° 0 mm 5 mps 734 mmHg 42%
    12:00 +14°C° 0 mm 5 mps 733 mmHg 38%
    13:00 +15°C° 0 mm 5 mps 733 mmHg 38%
    14:00 +17°C° 0 mm 4 mps 732 mmHg 37%
    15:00 +17°C° 0 mm 4 mps 732 mmHg 36%
    16:00 +16°C° 0 mm 3 mps 732 mmHg 42%
    17:00 +15°C° 0 mm 2 mps 732 mmHg 47%
    18:00 +14°C° 0 mm 2 mps 732 mmHg 52%
    19:00 +12°C° 0 mm 1 mps 733 mmHg 53%
    20:00 +11°C° 0 mm 1 mps 733 mmHg 54%
    21:00 +9°C° 0 mm 1 mps 733 mmHg 55%
    22:00 +9°C° 0 mm 1 mps 733 mmHg 56%
    23:00 +8°C° 0 mm 2 mps 733 mmHg 57%

    Day after tomorrow, 21 April, Sunday

    Time Temperature Precipitation Wind Pressure Humidity
    00:00 +8°C° 0 mm 2 mps 733 mmHg 57%
    01:00 +8°C° 0 mm 2 mps 733 mmHg 61%
    02:00 +8°C° 0 mm 2 mps 733 mmHg 65%
    03:00 +7°C° 0 mm 2 mps 733 mmHg 69%
    04:00 +8°C° 0 mm 2 mps 734 mmHg 71%
    05:00 +8°C° 0 mm 2 mps 734 mmHg 74%
    06:00 +8°C° 0 mm 2 mps 735 mmHg 76%
    07:00 +10°C° 0 mm 3 mps 735 mmHg 71%
    08:00 +13°C° 0 mm 3 mps 735 mmHg 67%
    09:00 +16°C° 0 mm 3 mps 735 mmHg 62%
    10:00 +18°C° 0 mm 4 mps 735 mmHg 60%
    11:00 +20°C° 0 mm 5 mps 736 mmHg 58%
    12:00 +22°C° 0 mm 5 mps 736 mmHg 56%
    13:00 +22°C° 0 mm 5 mps 736 mmHg 56%
    14:00 +23°C° 0 mm 6 mps 735 mmHg 56%
    15:00 +24°C° 0 mm 6 mps 735 mmHg 56%
    16:00 +23°C° 0 mm 5 mps 735 mmHg 61%
    17:00 +22°C° 0 mm 4 mps 735 mmHg 66%
    18:00 +21°C° 0 mm 3 mps 735 mmHg 71%
    19:00 +19°C° 0 mm 4 mps 736 mmHg 75%
    20:00 +18°C° 0 mm 4 mps 736 mmHg 78%
    21:00 +15°C° 0 mm 4 mps 736 mmHg 81%
    22:00 +15°C° 0.1 mm 4 mps 736 mmHg 83%
    23:00 +15°C° 0.1 mm 4 mps 736 mmHg 85%

    22 April, Monday

    Time Temperature Precipitation Wind Pressure Humidity
    00:00 +14°C° 0.1 mm 4 mps 736 mmHg 88%
    01:00 +14°C° 0.4 mm 4 mps 736 mmHg 89%
    02:00 +14°C° 0.4 mm 4 mps 736 mmHg 90%
    03:00 +14°C° 0.4 mm 4 mps 736 mmHg 91%
    04:00 +14°C° 0 mm 4 mps 736 mmHg 92%
    05:00 +14°C° 0 mm 3 mps 736 mmHg 93%
    06:00 +14°C° 0 mm 3 mps 736 mmHg 94%
    07:00 +17°C° 0.2 mm 3 mps 736 mmHg 89%
    08:00 +18°C° 0.2 mm 3 mps 736 mmHg 84%
    09:00 +20°C° 0.2 mm 4 mps 737 mmHg 80%
    10:00 +21°C° 0.6 mm 4 mps 736 mmHg 75%
    11:00 +23°C° 0.6 mm 4 mps 736 mmHg 71%
    12:00 +25°C° 0.6 mm 4 mps 736 mmHg 66%
    13:00 +25°C° 2.6 mm 4 mps 736 mmHg 69%
    14:00 +23°C° 2.6 mm 4 mps 735 mmHg 71%
    15:00 +23°C° 2.6 mm 4 mps 735 mmHg 74%
    16:00 +22°C° 5.3 mm 4 mps 735 mmHg 79%
    17:00 +20°C° 5.3 mm 3 mps 735 mmHg 83%
    18:00 +19°C° 5.3 mm 3 mps 735 mmHg 88%
    19:00 +18°C° 1.9 mm 3 mps 735 mmHg 90%
    20:00 +17°C° 1.9 mm 2 mps 735 mmHg 93%
    21:00 +16°C° 1.9 mm 2 mps 735 mmHg 95%
    22:00 +14°C° 0 mm 3 mps 735 mmHg 95%
    23:00 +13°C° 0 mm 3 mps 735 mmHg 96%

    23 April, Tuesday

    Time Temperature Precipitation Wind Pressure Humidity
    00:00 +12°C° 0 mm 4 mps 735 mmHg 96%
    01:00 +11°C° 0.1 mm 4 mps 734 mmHg 95%
    02:00 +10°C° 0.1 mm 4 mps 734 mmHg 95%
    03:00 +8°C° 0.1 mm 4 mps 734 mmHg 94%
    04:00 +8°C° 0.2 mm 5 mps 734 mmHg 94%
    05:00 +7°C° 0.2 mm 5 mps 735 mmHg 93%
    06:00 +7°C° 0.2 mm 5 mps 735 mmHg 93%
    07:00 +7°C° 0.2 mm 5 mps 735 mmHg 92%
    08:00 +7°C° 0.2 mm 5 mps 736 mmHg 91%
    09:00 +7°C° 0.2 mm 6 mps 736 mmHg 90%
    10:00 +5°C° 0.5 mm 6 mps 736 mmHg 90%
    11:00 +5°C° 0.5 mm 6 mps 736 mmHg 91%
    12:00 +5°C° 0.5 mm 6 mps 737 mmHg 91%
    13:00 +6°C° 0.2 mm 5 mps 737 mmHg 90%
    14:00 +6°C° 0.2 mm 5 mps 737 mmHg 90%
    15:00 +6°C° 0.2 mm 4 mps 737 mmHg 90%
    16:00 +7°C° 0 mm 4 mps 738 mmHg 89%
    17:00 +8°C° 0 mm 4 mps 738 mmHg 87%
    18:00 +8°C° 0 mm 5 mps 738 mmHg 86%
    19:00 +7°C° 0 mm 4 mps 738 mmHg 88%
    20:00 +7°C° 0 mm 3 mps 739 mmHg 90%
    21:00 +6°C° 0 mm 2 mps 739 mmHg 92%
    22:00 +5°C° 0 mm 2 mps 739 mmHg 91%
    23:00 +4°C° 0 mm 3 mps 739 mmHg 90%

    24 April, Wednesday

    Time Temperature Precipitation Wind Pressure Humidity
    00:00 +3°C° 0 mm 3 mps 739 mmHg 89%
    01:00 +3°C° 0 mm 3 mps 739 mmHg 88%
    02:00 +2°C° 0 mm 3 mps 739 mmHg 88%
    03:00 +2°C° 0 mm 2 mps 739 mmHg 87%
    04:00 +3°C° 0 mm 2 mps 740 mmHg 86%
    05:00 +3°C° 0 mm 2 mps 740 mmHg 85%
    06:00 +3°C° 0 mm 2 mps 740 mmHg 83%
    07:00 +5°C° 0 mm 2 mps 740 mmHg 77%
    08:00 +8°C° 0 mm 2 mps 740 mmHg 71%
    09:00 +10°C° 0 mm 2 mps 740 mmHg 65%
    10:00 +12°C° 0 mm 2 mps 740 mmHg 60%
    11:00 +14°C° 0 mm 2 mps 739 mmHg 55%
    12:00 +16°C° 0 mm 2 mps 739 mmHg 49%
    13:00 +16°C° 0 mm 2 mps 738 mmHg 48%
    14:00 +16°C° 0 mm 1 mps 738 mmHg 47%
    15:00 +18°C° 0 mm 1 mps 737 mmHg 45%
    16:00 +16°C° 0 mm 2 mps 737 mmHg 51%
    17:00 +15°C° 0 mm 2 mps 737 mmHg 57%
    18:00 +14°C° 0 mm 2 mps 737 mmHg 63%
    19:00 +12°C° 0 mm 2 mps 737 mmHg 66%
    20:00 +9°C° 0 mm 2 mps 737 mmHg 68%
    21:00 +7°C° 0 mm 3 mps 736 mmHg 71%
    22:00 +7°C° 0 mm 3 mps 736 mmHg 73%
    23:00 +7°C° 0 mm 3 mps 736 mmHg 74%
    Show more